L9-ff-1 Sea,

2:56 PM CEST on August 17, 2017 (GMT +0200)
L9-ff-1 Sea

Weather History for EHMG - December, 2013

Change the Weather History Date:

Monday, December 30, 2013

  Actual Average Record
Temperature  
Mean Temperature 46 °F -  
Max Temperature 50 °F - - ()
Min Temperature 42 °F - - ()
Degree Days  
Heating Degree Days 19    
Moisture  
Dew Point 40 °F    
Average Humidity 79    
Maximum Humidity 93    
Minimum Humidity 57    
Precipitation  
Precipitation 0.00 in - - ()
Sea Level Pressure  
Sea Level Pressure 29.92 in    
Wind  
Wind Speed 33 mph ()    
Max Wind Speed 54 mph    
Max Gust Speed -    
Visibility 7.3 miles    
Events Rain    
T = Trace of Precipitation, MM = Missing Value Source: Averaged Metar Reports

Daily Weather History Graph

Daily Weather History Graph

Search for Another Location

Airport or City:

Trip Planner

Search our weather history database for the weather conditions in past years. The results will help you decide how hot, cold, wet, or windy it might be!

Date:

Astronomy

Dec. 30, 2013 Rise Set
Actual Time 8:57 AM CET 4:28 PM CET
Civil Twilight 8:14 AM CET 5:11 PM CET
Nautical Twilight 7:28 AM CET 5:57 PM CET
Astronomical Twilight 6:45 AM CET 6:39 PM CET
Moon 6:20 AM CET (12/30) 2:54 PM CET (12/30)
Length of Visible Light 8h 57m
Length of Day
7h 31m
Waning Crescent, 6% of the Moon is Illuminated
Dec 30
Waning Crescent
Jan 1
New
Jan 8
First Quarter
Jan 16
Full
Jan 24
Last Quarter

Hourly Weather History & Observations

Time (CET) Temp. Windchill Dew Point Humidity Pressure Visibility Wind Dir Wind Speed Gust Speed Precip Events Conditions
12:00 AM 46 °F - 37 °F 63% 30.07 in 14 mi SW 22.4 mph - -   Scattered Clouds
12:25 AM 46.4 °F 37.4 °F 37.4 °F 71% 30.06 in 6.2 mi SW 28.8 mph - N/A   Partly Cloudy
12:55 AM 46.4 °F 37.4 °F 35.6 °F 66% 30.06 in 6.2 mi SW 28.8 mph - N/A   Partly Cloudy
1:00 AM 46 °F - 36 °F 57% 30.07 in 15 mi SW 24.6 mph - -   Partly Cloudy
1:25 AM 46.4 °F 37.4 °F 35.6 °F 66% 30.04 in 6.2 mi SW 28.8 mph - N/A   Partly Cloudy
1:55 AM 46.4 °F 37.2 °F 37.4 °F 71% 30.06 in 6.2 mi SW 29.9 mph - N/A   Partly Cloudy
2:00 AM 47 °F - 38 °F 60% 30.06 in 14 mi SW 24.6 mph - -   Scattered Clouds
2:25 AM 46.4 °F 36.9 °F 37.4 °F 71% 30.06 in 6.2 mi SW 32.2 mph - N/A   Partly Cloudy
2:55 AM 46.4 °F 37.0 °F 39.2 °F 76% 30.06 in 6.2 mi SSW 31.1 mph - N/A   Unknown
3:00 AM 47 °F - 39 °F 65% 30.07 in 12 mi SSW 29.1 mph - -   Scattered Clouds
3:25 AM 46.4 °F 36.5 °F 41.0 °F 81% 30.04 in 6.2 mi SSW 34.5 mph - N/A   Partly Cloudy
3:55 AM 46.4 °F 36.4 °F 41.0 °F 81% 30.04 in 6.2 mi SSW 35.7 mph - N/A   Partly Cloudy
4:00 AM 46 °F - 41 °F 78% 30.05 in 9 mi SSW 31.3 mph - -   Partly Cloudy
4:25 AM 46.4 °F 36.3 °F 42.8 °F 87% 30.04 in 6.2 mi SSW 36.8 mph - N/A   Scattered Clouds
4:55 AM 44.6 °F 33.8 °F 42.8 °F 93% 30.04 in 6.2 mi SSW 36.8 mph - N/A   Mostly Cloudy
5:00 AM 45 °F - 42 °F 84% 30.04 in 7 mi SSW 29.1 mph - -   Scattered Clouds
5:25 AM 44.6 °F 33.9 °F 41.0 °F 87% 30.01 in 6.2 mi SSW 35.7 mph - N/A   Mostly Cloudy
5:55 AM 44.6 °F 33.8 °F 41.0 °F 87% 30.01 in 6.2 mi SSW 36.8 mph - N/A   Mostly Cloudy
6:00 AM 44 °F - 40 °F 83% 30.01 in 9 mi SSW 29.1 mph - -   Scattered Clouds
6:25 AM 44.6 °F 33.6 °F 39.2 °F 81% 29.98 in 6.2 mi SSW 38.0 mph - N/A   Partly Cloudy
6:55 AM 44.6 °F 33.6 °F 39.2 °F 81% 29.98 in 6.2 mi South 38.0 mph - N/A   Unknown
7:00 AM 43 °F - 38 °F 77% 29.99 in 12 mi South 31.3 mph - -   Partly Cloudy
7:25 AM 42.8 °F 31.0 °F 37.4 °F 81% 29.98 in 6.2 mi South 39.1 mph - N/A   Unknown
7:55 AM 44.6 °F 33.3 °F 39.2 °F 81% 29.98 in 6.2 mi South 40.3 mph - N/A   Unknown
8:00 AM 44 °F - 38 °F 72% 29.98 in 12 mi South 33.6 mph - -  
8:25 AM 42.8 °F 30.5 °F 37.4 °F 81% 29.98 in 6.2 mi South 42.6 mph - N/A   Unknown
8:55 AM 42.8 °F 30.7 °F 37.4 °F 81% 29.95 in 6.2 mi South 41.4 mph - N/A   Unknown
9:00 AM 43 °F - 38 °F 77% 29.97 in 11 mi South 35.8 mph - -   Scattered Clouds
9:25 AM 42.8 °F 30.7 °F 37.4 °F 81% 29.95 in 6.2 mi South 41.4 mph - N/A   Partly Cloudy
9:55 AM 42.8 °F 30.5 °F 37.4 °F 81% 29.95 in 6.2 mi South 42.6 mph - N/A   Partly Cloudy
10:00 AM 43 °F - 39 °F 80% 29.97 in 10 mi South 33.6 mph - -   Scattered Clouds
10:25 AM 42.8 °F 30.8 °F 39.2 °F 87% 29.95 in 6.2 mi South 40.3 mph - N/A   Partly Cloudy
10:55 AM 42.8 °F 30.4 °F 37.4 °F 81% 29.95 in 6.2 mi South 43.7 mph - N/A   Partly Cloudy
11:00 AM 43 °F - 38 °F 74% 29.95 in 11 mi South 38.0 mph - -   Scattered Clouds
11:25 AM 44.6 °F 32.9 °F 39.2 °F 81% 29.92 in 6.2 mi South 43.7 mph - N/A   Partly Cloudy
11:55 AM 42.8 °F 30.1 °F 37.4 °F 81% 29.92 in 6.2 mi South 46.0 mph - N/A   Unknown
12:00 PM 44 °F - 38 °F 73% 29.93 in 11 mi South 38.0 mph - -   Scattered Clouds
12:25 PM 44.6 °F 32.9 °F 39.2 °F 81% 29.89 in 6.2 mi South 43.7 mph - N/A   Partly Cloudy
12:55 PM 44.6 °F 32.9 °F 39.2 °F 81% 29.89 in 6.2 mi South 43.7 mph - N/A   Partly Cloudy
1:00 PM 44 °F - 39 °F 76% 29.91 in 11 mi South 38.0 mph - -   Partly Cloudy
1:25 PM 44.6 °F 32.6 °F 39.2 °F 81% 29.89 in 6.2 mi South 47.2 mph - N/A   Unknown
1:55 PM 44.6 °F 32.6 °F 39.2 °F 81% 29.86 in 6.2 mi South 47.2 mph - N/A   Unknown
2:00 PM 45 °F - 40 °F 75% 29.88 in 11 mi South 38.0 mph - -   Scattered Clouds
2:25 PM 46.4 °F 35.2 °F 39.2 °F 76% 29.86 in 6.2 mi South 46.0 mph - N/A   Unknown
2:55 PM 46.4 °F 35.3 °F 41.0 °F 81% 29.83 in 6.2 mi South 44.9 mph - N/A   Unknown
3:00 PM 46 °F - 40 °F 73% 29.85 in 13 mi South 38.0 mph - -  
3:25 PM 46.4 °F 35.2 °F 41.0 °F 81% 29.83 in 6.2 mi South 46.0 mph - N/A   Unknown
3:55 PM 46.4 °F 35.0 °F 41.0 °F 81% 29.83 in 6.2 mi South 48.3 mph - N/A   Drizzle
4:00 PM 47 °F - 40 °F 69% 29.83 in 8 mi South 40.3 mph - - Rain Drizzle
4:25 PM 46.4 °F 34.9 °F 41.0 °F 81% 29.80 in 6.2 mi South 49.5 mph - N/A Rain Light Rain
4:55 PM 46.4 °F 34.9 °F 41.0 °F 81% 29.80 in 6.2 mi South 49.5 mph - N/A Rain Light Rain
5:00 PM 47 °F - 40 °F 71% 29.81 in 6 mi South 40.3 mph - - Rain Heavy Rain
5:25 PM 46.4 °F 34.9 °F 41.0 °F 81% 29.77 in 4.3 mi South 49.5 mph - N/A Rain Light Rain Showers
5:55 PM 44.6 °F 31.9 °F 41.0 °F 87% 29.77 in 4.3 mi South 54.1 mph - N/A Rain Light Rain
6:00 PM 45 °F - 41 °F 80% 29.79 in 4 mi South 44.7 mph - - Rain Light Rain
6:25 PM 44.6 °F 32.1 °F 41.0 °F 87% 29.77 in 5.0 mi South 51.8 mph - N/A   Mostly Cloudy
6:55 PM 44.6 °F 32.4 °F 41.0 °F 87% 29.77 in 5.0 mi South 48.3 mph - N/A   Light Drizzle
7:00 PM 46 °F - 42 °F 80% 29.80 in 6 mi South 40.3 mph - - Rain Light Drizzle
7:25 PM 46.4 °F 34.6 °F 42.8 °F 87% 29.77 in 6.2 mi SSW 52.9 mph - N/A   Mostly Cloudy
7:55 PM 46.4 °F 35.0 °F 44.6 °F 93% 29.80 in 3.1 mi SSW 48.3 mph - N/A Rain Light Rain Showers
8:00 PM 47 °F - 44 °F 86% 29.81 in 4 mi SW 42.5 mph - - Rain Light Rain
8:25 PM 48.2 °F - 44.6 °F 87% 29.80 in 6.2 mi SW 47.2 mph - N/A   Mostly Cloudy
8:55 PM 50.0 °F - 42.8 °F 76% 29.83 in 6.2 mi SW 35.7 mph - N/A   Mostly Cloudy
9:00 PM 49 °F - 43 °F 71% 29.85 in 9 mi SW 29.1 mph - - Rain Rain
9:25 PM 48.2 °F - 42.8 °F 82% 29.83 in 6.2 mi SW 34.5 mph - N/A   Mostly Cloudy
9:55 PM 48.2 °F - 42.8 °F 82% 29.86 in 6.2 mi SW 34.5 mph - N/A   Mostly Cloudy
10:00 PM 49 °F - 41 °F 67% 29.87 in 11 mi SW 26.8 mph - -   Partly Cloudy
10:25 PM 48.2 °F - 41.0 °F 76% 29.86 in 6.2 mi SW 32.2 mph - N/A   Scattered Clouds
10:55 PM 48.2 °F - 42.8 °F 82% 29.86 in 6.2 mi SW 31.1 mph - N/A   Unknown
11:00 PM 48 °F - 42 °F 73% 29.89 in 10 mi SW 26.8 mph - -   Partly Cloudy
11:25 PM 48.2 °F - 42.8 °F 82% 29.89 in 6.2 mi SW 32.2 mph - N/A   Unknown
11:55 PM 48.2 °F - 42.8 °F 82% 29.89 in 6.2 mi SW 28.8 mph - N/A   Scattered Clouds